Flag for Germany Weather past 2 weeks in Königs Wusterhausen, Brandenburg, Germany

Now
34 °F

Drizzle. Mostly cloudy.


Feels Like: 28 °F
Forecast: 35 / 40 °F
Wind: 7 mph from Southwest

Location: Berlin-Schoenefeld

Current Time: Jan 26, 2015 at 1:22:16 AM

Latest Report: Jan 26, 2015 at 12:50 AM


Visibility: N/A

Pressure: 30.30 "Hg

Humidity: 100%

Dew point: 34 °F

Location of Königs WusterhausenLocation

Historic Weather in Königs Wusterhausen — Graph

°F

Königs Wusterhausen temperature yesterday

Maximum temperature yesterday: 34 °F (at 1:20 AM)
Minimum temperature yesterday: 32 °F (at 12:20 AM)
Average temperature yesterday: 34 °F

Past Weeks' High & Low Weather Summary

 TemperatureHumidityPressure
High54 °F (Jan 13, 8:20 PM)100% (Jan 11, 3:20 PM)30.30 "Hg (Jan 11, 3:20 PM)
Low25 °F (Jan 19, 4:20 AM)54% (Jan 13, 6:20 PM)29.59 "Hg (Jan 15, 6:50 PM)
Average37 °F89%29.93 "Hg
* Reported Jan 11 12:20 AM — Jan 26 12:20 AM, Königs Wusterhausen, Weather by CustomWeather, © 2014

Note: Actual official high and low records may vary slightly from our data, if they occured in-between our weather recording intervals... More about our weather records

Advertising

Königs Wusterhausen weather history for previous 24 hours

 ConditionsComfort  
Time TempWeatherWind HumidityBarometerVisibility
12:20 AM
Jan 26
34 °FPassing clouds.7 mph100%30.30 "HgN/A
11:50 PM
Jan 25
34 °FMostly cloudy.6 mph100%30.30 "HgN/A
11:20 PM34 °FMostly cloudy.6 mph100%30.30 "HgN/A
10:20 PM34 °FPassing clouds.5 mph100%30.30 "HgN/A
9:50 PM34 °FDrizzle. Low clouds.6 mph100%30.30 "HgN/A
9:20 PM34 °FLow clouds.6 mph100%30.30 "HgN/A
8:50 PM34 °FDrizzle. Mostly cloudy.7 mph93%30.30 "HgN/A
8:20 PM34 °FMostly cloudy.7 mph100%30.30 "HgN/A
7:50 PM34 °FMostly cloudy.6 mph93%30.30 "HgN/A
7:20 PM34 °FPassing clouds.8 mph100%30.30 "HgN/A
6:50 PM34 °FPassing clouds.7 mph100%30.30 "Hg6 mi
6:20 PM34 °FPassing clouds.8 mph100%30.30 "HgN/A
5:50 PM34 °FPassing clouds.7 mph93%30.27 "HgN/A
5:20 PM34 °FPassing clouds.9 mph93%30.27 "HgN/A
4:50 PM34 °FPassing clouds.9 mph93%30.27 "HgN/A
4:20 PM34 °FPartly sunny.9 mph93%30.27 "HgN/A
3:50 PM34 °FPartly sunny.12 mph93%30.27 "HgN/A
3:20 PM34 °FPartly sunny.10 mph93%30.27 "HgN/A
2:50 PM34 °FPartly sunny.10 mph93%30.24 "HgN/A
2:20 PM34 °FPartly sunny.10 mph93%30.24 "HgN/A
1:50 PM34 °FPartly sunny.12 mph93%30.24 "HgN/A
1:20 PM34 °FPartly sunny.12 mph93%30.24 "HgN/A
12:50 PM34 °FPartly sunny.3 mph93%30.24 "HgN/A
12:20 PM34 °FPartly sunny.10 mph93%30.24 "HgN/A
11:50 AM34 °FPartly sunny.12 mph93%30.24 "HgN/A
11:20 AM34 °FPartly sunny.12 mph93%30.24 "HgN/A
10:50 AM34 °FPartly sunny.12 mph93%30.24 "HgN/A
10:20 AM34 °FPartly sunny.12 mph93%30.24 "HgN/A
9:50 AM34 °FPartly sunny.10 mph93%30.24 "HgN/A
9:20 AM34 °FPartly sunny.13 mph93%30.24 "HgN/A
8:50 AM34 °FPartly sunny.12 mph93%30.24 "HgN/A
8:20 AM34 °FPartly sunny.12 mph93%30.21 "Hg6 mi
7:50 AM34 °FPassing clouds.10 mph100%30.21 "Hg5 mi
7:20 AM34 °FPassing clouds.9 mph93%30.21 "HgN/A
6:50 AM34 °FPassing clouds.12 mph93%30.21 "Hg5 mi
6:20 AM34 °FPassing clouds.9 mph93%30.18 "Hg5 mi
5:50 AM34 °FPassing clouds.9 mph93%30.18 "Hg5 mi
5:20 AM34 °FPassing clouds.9 mph93%30.18 "Hg4 mi
4:20 AM34 °FFog.9 mph100%30.15 "Hg3 mi
3:50 AM34 °FFog.12 mph100%30.15 "Hg3 mi
3:20 AM34 °FFog.10 mph100%30.15 "Hg3 mi
2:50 AM34 °FFog.9 mph100%30.15 "Hg2 mi
2:20 AM34 °FFog.9 mph100%30.12 "Hg2 mi
1:50 AM34 °FFog.10 mph100%30.12 "Hg2 mi
1:20 AM34 °FLight snow. Fog.8 mph100%30.12 "Hg3 mi
Weather by CustomWeather, © 2014

See weather overviewHow to use our weather pages